Location: Pace/Milton
(30.6162°N, 87.1503°W)
Time: 10:41:37
(UTC-06:00)

Envisat - Pass Details

Date: 07 December 2021
Orbit: 764 x 766 km, 98.2° (Epoch: 23 January)

Event Time Altitude Azimuth Distance (km) Brightness Sun altitude
Rises 06:04:51 0° 346° (NNW) 3,234 5.9 -6.4°
Reaches altitude 10° 06:08:33 10° 318° (NW) 2,303 4.9 -5.6°
Maximum altitude 06:10:36 13° 294° (WNW) 2,129 4.6 -5.2°
Drops below altitude 10° 06:12:40 10° 270° (W) 2,298 4.9 -4.8°
Sets 06:16:21 0° 242° (WSW) 3,219 5.9 -4.1°
